Regional Weather Roundup
Issued by NWS Sterling, VA

Home | Current Version | Previous Version | Graphics & Text | Print | Product List | Glossary On
Versions: 1 2 3 4 5 6 7 8 9 10 11 12 13 14 15 16 17 18 19 20 21 22 23 24 25 26 27 28 29 30 31 32 33 34 35 36 37 38 39 40 41 42 43 44 45 46 47 48 49 50
000
ASUS41 KLWX 290410
RWRLWX

REGIONAL WEATHER ROUNDUP
NATIONAL WEATHER SERVICE BALTIMORE MD/WASHINGTON DC
1200 AM EDT SUN MAY 29 2016

Note: "FAIR" indicates few or no clouds below 12,000 feet
with no significant weather and/or obstructions to visibility.
 TC=TEMPERATURE CELSIUS

 * =Non NWS site. Station does not report precipitation (e.g. rain,
    snow, etc.), thunder, or fog.

DCZ001-MDZ009-015-VAZ040>042-051-053>054-290500-
WASHINGTON METRO

CITY           SKY/WX    TMP DP  RH WIND       PRES   REMARKS
WASHINGTON NAT FAIR      73  63  70 S7        30.15S
DULLES         FAIR      72  63  73 S5        30.15R
ANDREWS AFB    CLEAR     68  61  78 S6        30.15S
FT BELVOIR     FAIR      68  63  83 CALM      30.15R
QUANTICO       FAIR      71  64  78 S7        30.16R
COLLEGE PARK*  FAIR      72  59  64 SE5       30.15S
LEESBURG*      FAIR      73  68  83 S6        30.16R
MANASSAS*      FAIR      66  64  94 CALM      30.15R

$$

MDZ006>007-011-014-290500-
BALTIMORE METRO

CITY           SKY/WX    TMP DP  RH WIND       PRES   REMARKS
BWI AIRPORT    PTCLDY    71  57  61 CALM      30.15S
MD SCIENCE CTR   N/A     74  57  55 MISG      30.16R
MARTIN STATE   CLEAR     72  63  73 S7        30.17S
ANNAPOLIS      CLEAR     71  62  73 S7        30.14F
FORT MEADE*    CLEAR     63  57  82 CALM      30.17S

$$

MDZ012-015-019>023-290500-
MARYLAND EASTERN SHORE

CITY           SKY/WX    TMP DP  RH WIND       PRES   REMARKS
OCEAN CITY     CLOUDY    66  62  87 SW3       30.17F
SALISBURY      CLOUDY    61  59  93 CALM      30.16F
BAY BRIDGE AP* CLEAR     72  63  73 S8        30.15S
CAMBRIDGE*       N/A     63  59  88 SE3       30.16S
EASTON*        CLEAR     69  65  85 S5        30.20S

$$

MDZ017>025-290500-
SOUTHERN MARYLAND

CITY           SKY/WX    TMP DP  RH WIND       PRES   REMARKS
PATUXENT RIVER CLEAR     68  61  78 SE5       30.15F
ST INIGOES     CLEAR     70  63  78 SE5       30.15S
LEONARDTOWN*   CLEAR     64  61  88 CALM      30.18R

$$

MDZ003>005-290500-
NORTH CENTRAL MARYLAND

CITY           SKY/WX    TMP DP  RH WIND       PRES   REMARKS
FREDERICK*     CLEAR     70  64  83 CALM      30.17R
HAGERSTOWN APT CLOUDY    77  63  61 SE7       30.13F
WESTMINSTER*   CLEAR     73  70  88 S6        30.17R

$$

MDZ501>502-290500-
WESTERN MARYLAND

CITY           SKY/WX    TMP DP  RH WIND       PRES   REMARKS
OAKLAND*       NOT AVBL
CUMBERLAND*    CLEAR     72  68  88 CALM      30.16S

$$

VAZ025>031-290500-
SHENANDOAH VALLEY

CITY           SKY/WX    TMP DP  RH WIND       PRES   REMARKS
WINCHESTER*    FAIR      68  61  77 CALM      30.15S
FRONT ROYAL*   FAIR      66  61  82 S3        30.14S
LURAY*         FAIR      66  63  88 CALM      30.16S
NEW MARKET*    FAIR      64  62  93 CALM      30.15S
STAUNTON*      FAIR      64  61  90 CALM      30.20S
WAYNESBORO*    FAIR      65  59  80 CALM      30.19S

$$

WVZ021-048>050-054>055-290500-
EASTERN WEST VIRGINIA PANHANDLE

CITY           SKY/WX    TMP DP  RH WIND       PRES   REMARKS
MARTINSBURG    FAIR      69  63  81 SE5       30.13S
PETERSBURG*    FAIR      67  65  95 CALM      30.15F

$$

VAZ036>039-050-290500-
CENTRAL FOOTHILLS

CITY           SKY/WX    TMP DP  RH WIND       PRES   REMARKS
CHARLOTTESVILL FAIR      70  61  73 CALM      30.16R
CULPEPER*      FAIR      65  64  96 CALM      30.16R
ORANGE*        FAIR      64  64 100 CALM      30.17R
GORDONSVILLE*  FAIR      64  64  98 CALM      30.15R
WARRENTON*     FAIR      68  59  73 SE3       30.15R

$$

VAZ055>057-290500-
NORTH AND CENTRAL PIEDMONT

CITY           SKY/WX    TMP DP  RH WIND       PRES   REMARKS
FREDERICKSBRG* FAIR      69  61  76 CALM      30.15R
STAFFORD*      FAIR      63  60  91 CALM      30.19R

$$

NCZ024-NYZ072-PAZ021-071-VAZ022-071-290500-
OTHER REGIONAL OBSERVATIONS

CITY           SKY/WX    TMP DP  RH WIND       PRES   REMARKS
NEW YORK CITY  CLEAR     78  62  57 VRB5      30.15R
PHILADELPHIA   PTCLDY    73  59  61 S3        30.15S
PITTSBURGH     PTCLDY    76  65  68 S5        30.11F
ROANOKE        FAIR      68  62  81 CALM      30.19S
RICHMOND       MOCLDY    68  63  84 SE7       30.15S
RALEIGH        CLOUDY    75  65  70 CALM      30.14S

$$

ANZ530>537-290500-
MARINE OBSERVATIONS

STATION/POSITION TIME  TEMP    WIND        PRES
                       AIR SEA DIR/SP/G
                 (UTC) (F)     (DEG/KT/KT) (MB)
THOMAS PT LIGHT  0400   69 68  180/ 14/ 15 1022.1F
BALT KEY BRIDGE  0300   74                 1020.5F
COVE POINT       0300   69                 1021.8F
LEWISETTA        0300   71 73              1020.8F
SOLOMONS ISLAND  0300   70 67                N/A
PINEY POINT      0300          160/  8/  9   N/A

$$




USA.gov is the U.S. government's official web portal to all federal, state and local government web resources and services.